Weather History for Jackson, KY

Change the Weather History Date:

Thursday, January 30, 2014

  Actual Average Record
Temperature  
Mean Temperature 24 °F 36 °F  
Max Temperature 40 °F 44 °F 71 °F (2002)
Min Temperature 8 °F 27 °F 7 °F (2004)
Degree Days  
Heating Degree Days 41 29  
Month to date heating degree days 1111 898  
Since 1 July heating degree days 2756 2532  
Cooling Degree Days 0 0  
Month to date cooling degree days 0 0  
Year to date cooling degree days 0 0  
Moisture  
Dew Point -1 °F    
Average Humidity 41    
Maximum Humidity 63    
Minimum Humidity 19    
Precipitation  
Precipitation 0.00 in 0.12 in 1.79 in (2013)
Month to date precipitation 3.15 3.48  
Year to date precipitation 3.15 3.48  
Snow  
Snow 0.00 in 0.30 in - ()
Month to date snowfall 14.0 6.8  
Since 1 July snowfall 18.3 12.3  
Snow Depth T in    
Sea Level Pressure  
Sea Level Pressure 30.21 in    
Wind  
Wind Speed 5 mph (South)    
Max Wind Speed 10 mph    
Max Gust Speed 17 mph    
Visibility 10 miles    
Events      
T = Trace of Precipitation, MM = Missing Value Source: NWS Daily Summary

Daily Weather History Graph

Daily Weather History Graph

Search for Another Location

Airport:

Trip Planner

Search our weather history database for the weather conditions in past years. The results will help you decide how hot, cold, wet, or windy it might be!

Date:

Astronomy

Jan. 30, 2014 Rise Set
Actual Time 7:38 AM EST 5:55 PM EST
Civil Twilight 7:10 AM EST 6:22 PM EST
Nautical Twilight 6:39 AM EST 6:54 PM EST
Astronomical Twilight 6:08 AM EST 7:25 PM EST
Moon 7:04 AM EST (1/30) 6:04 PM EST (1/30)
Length of Visible Light 11h 11m
Length of Day
10h 16m
Waning Crescent, 0% of the Moon is Illuminated
Jan 30
Waning Crescent
Jan 30
New
Feb 6
First Quarter
Feb 14
Full
Feb 22
Last Quarter

Hourly Weather History & Observations

Time (EST) Temp. Windchill Dew Point Humidity Pressure Visibility Wind Dir Wind Speed Gust Speed Precip Events Conditions
12:53 AM 12.9 °F 6.9 °F -5.1 °F 45% 30.35 in 10.0 mi South 3.5 mph - N/A   Clear
1:53 AM 12.0 °F 5.9 °F -5.1 °F 46% 30.34 in 10.0 mi SSE 3.5 mph - N/A   Clear
2:53 AM 10.0 °F 3.6 °F -4.0 °F 53% 30.34 in 10.0 mi South 3.5 mph - N/A   Clear
3:53 AM 9.0 °F 2.4 °F -2.9 °F 59% 30.33 in 10.0 mi South 3.5 mph - N/A   Clear
4:53 AM 9.0 °F 2.4 °F -2.0 °F 61% 30.33 in 10.0 mi SSW 3.5 mph - N/A   Clear
5:53 AM 9.0 °F -0.9 °F -2.0 °F 61% 30.33 in 10.0 mi SSW 5.8 mph - N/A   Clear
6:53 AM 9.0 °F 2.4 °F -2.0 °F 61% 30.31 in 10.0 mi South 3.5 mph - N/A   Clear
7:53 AM 8.1 °F -0.5 °F -2.0 °F 64% 30.32 in 10.0 mi SSW 4.6 mph - N/A   Clear
8:53 AM 10.9 °F 4.7 °F -0.9 °F 59% 30.31 in 10.0 mi South 3.5 mph - N/A   Clear
9:53 AM 14.0 °F 8.2 °F 1.9 °F 59% 30.30 in 10.0 mi Variable 3.5 mph - N/A   Clear
10:53 AM 19.9 °F 13.4 °F 1.9 °F 46% 30.30 in 10.0 mi South 4.6 mph - N/A   Clear
11:53 AM 26.1 °F - 3.0 °F 37% 30.29 in 10.0 mi Calm Calm - N/A   Clear
12:53 PM 32.0 °F 27.5 °F 1.9 °F 28% 30.24 in 10.0 mi Variable 4.6 mph - N/A   Clear
1:53 PM 36.0 °F 29.6 °F -0.0 °F 22% 30.15 in 10.0 mi South 8.1 mph - N/A   Clear
2:53 PM 37.9 °F 34.4 °F -0.0 °F 20% 30.10 in 10.0 mi Variable 4.6 mph - N/A   Clear
3:53 PM 39.0 °F 34.8 °F -0.9 °F 19% 30.10 in 10.0 mi Variable 5.8 mph - N/A   Clear
4:53 PM 37.9 °F 32.7 °F -0.9 °F 19% 30.09 in 10.0 mi Variable 6.9 mph - N/A   Clear
5:53 PM 35.1 °F 30.1 °F -2.0 °F 21% 30.09 in 10.0 mi Variable 5.8 mph - N/A   Clear
6:53 PM 34.0 °F 28.8 °F -2.0 °F 22% 30.08 in 10.0 mi Variable 5.8 mph - N/A   Clear
7:53 PM 34.0 °F 27.2 °F -2.0 °F 22% 30.07 in 10.0 mi SSW 8.1 mph - N/A   Clear
8:53 PM 34.0 °F 28.0 °F -0.9 °F 23% 30.08 in 10.0 mi SSW 6.9 mph - N/A   Clear
9:53 PM 32.0 °F 27.5 °F -0.0 °F 26% 30.08 in 10.0 mi SSW 4.6 mph - N/A   Clear
10:53 PM 32.0 °F 26.4 °F 1.9 °F 28% 30.06 in 10.0 mi Variable 5.8 mph - N/A   Clear
11:53 PM 33.1 °F 26.1 °F 1.9 °F 27% 30.07 in 10.0 mi SSW 8.1 mph - N/A   Clear